OneWeb SL0066

operational
NORAD ID: 45424 Int'l Des: 2020-020 Owner: ONEWEB Country: UK Constellation: oneweb
LEOCIRCULARPOLARONEWEB_TYPE

OneWeb SL0066について

説明を読み込み中...

リアルタイム位置

3D地球を読み込み中...

次回通過

高度履歴

Altitude vs Time

uPlot chart will show altitude changes over time

軌道要素

1 45424U 20020A 25303.87490675 .00000553 00000-0 15249-2 0 9998
2 45424 87.8851 66.7262 0001498 108.1532 251.9760 13.11415934272620
Epoch: Oct 30, 2025 • Age: 8 hours

現在のステータス

高度 1228.4 km
速度 7.25 km/s
衛星直下点 68.03°N, 128.32°E
打ち上げ日 Mar 21, 2020
運用期間 5.6 years
タイプ internet

技術仕様

分類 Payload
質量 148.00 kg
乾燥質量 140.00 kg
総質量 148.00 kg
長さ 1.30 m
直径 1.00 m
スパン 5.00 m
形状 Trapezoid+2 pan
製造者 ONEWUS
バスタイプ ARROW
フェーズステータス In Orbit
所有者/国 ONEWEB/UK

大規模コンステレーション

Loading constellations...